Location: Namasale
(1.5000°N, 32.6167°E)
Time: 13:44:19
(UTC+00:00)

Tiros 1 - Visible Passes

Search period start: 23 April 2021 00:00
Search period end: 03 May 2021 00:00
Orbit: 630 x 663 km, 48.4° (Epoch: 22 April)

Date Brightness Start Highest point End Pass type
(mag) Time Alt. Az. Time Alt. Az. Time Alt. Az.
23 Apr 7.9 02:32:09 17° SSW 02:35:41 51° SE 02:40:16 10° NE visible
24 Apr 9.8 01:20:10 14° ESE 01:20:10 14° ESE 01:22:01 10° E visible
24 Apr 7.6 02:57:53 15° WSW 03:01:34 46° NW 03:06:04 10° NNE visible
25 Apr 8.1 01:45:50 44° ESE 01:45:50 44° ESE 01:49:58 10° ENE visible
26 Apr 7.4 02:11:25 53° NW 02:11:25 53° NW 02:15:57 10° NNE visible
27 Apr 10.2 00:59:12 12° ENE 00:59:12 12° ENE 00:59:40 10° ENE visible
27 Apr 8.9 02:36:54 16° NW 02:37:17 17° NW 02:40:17 10° N visible
28 Apr 9.5 01:24:35 18° NNE 01:24:35 18° NNE 01:25:47 10° NNE visible
29 Apr 9.6 01:49:50 12° N 01:49:50 12° N 01:50:23 10° N visible
